Coleman, TX

1:23 AM CDT on September 23, 2017 (GMT -0500)
Coleman Municipal

Weather History for KCOM - February, 2014

Change the Weather History Date:

Friday, February 7, 2014

  Actual Average (KABI) Record (KABI)
Temperature  
Mean Temperature 25 °F -  
Max Temperature 32 °F 56 °F 86 °F (1932)
Min Temperature 18 °F 34 °F -2 °F (1895)
Degree Days  
Heating Degree Days 40    
Moisture  
Dew Point 20 °F    
Average Humidity 81    
Maximum Humidity 97    
Minimum Humidity 72    
Precipitation  
Precipitation 0.00 in - - ()
Sea Level Pressure  
Sea Level Pressure 30.22 in    
Wind  
Wind Speed 4 mph (SE)    
Max Wind Speed 10 mph    
Max Gust Speed -    
Visibility 9 miles    
Events      
Averages and records for this station are not official NWS values.
T = Trace of Precipitation, MM = Missing Value Source: NWS Daily Summary

Daily Weather History Graph

Daily Weather History Graph

Search for Another Location

Airport or City:

Trip Planner

Search our weather history database for the weather conditions in past years. The results will help you decide how hot, cold, wet, or windy it might be!

Date:

Astronomy

Feb. 07, 2014 Rise Set
Actual Time 7:26 AM CST 6:17 PM CST
Civil Twilight 7:01 AM CST 6:42 PM CST
Nautical Twilight 6:32 AM CST 7:11 PM CST
Astronomical Twilight 6:03 AM CST 7:40 PM CST
Moon 12:33 PM CST (2/7) 1:41 AM CST (2/7)
Length of Visible Light 11h 41m
Length of Day
10h 50m
First Quarter, 59% of the Moon is Illuminated
Feb 7
First Quarter
Feb 14
Full
Feb 22
Last Quarter
Mar 1
New
Mar 8
First Quarter

Hourly Weather History & Observations

Time (CST) Temp. Windchill Dew Point Humidity Pressure Visibility Wind Dir Wind Speed Gust Speed Precip Events Conditions
12:15 AM 18.5 °F 11.7 °F 12.2 °F 76% 30.33 in 10.0 mi NE 4.6 mph - N/A   Overcast
12:35 AM 18.7 °F 11.9 °F 12.4 °F 76% 30.31 in 10.0 mi ENE 4.6 mph - N/A   Overcast
12:55 AM 18.9 °F 13.7 °F 12.4 °F 76% 30.33 in 10.0 mi NE 3.5 mph - N/A   Overcast
1:15 AM 18.9 °F 12.1 °F 12.7 °F 77% 30.31 in 10.0 mi North 4.6 mph - N/A   Overcast
1:35 AM 19.0 °F 12.3 °F 12.9 °F 77% 30.32 in 10.0 mi North 4.6 mph - N/A   Overcast
1:55 AM 19.0 °F 13.9 °F 12.9 °F 77% 30.31 in 10.0 mi NE 3.5 mph - N/A   Overcast
2:15 AM 19.0 °F - 13.1 °F 78% 30.30 in 10.0 mi Calm Calm - N/A   Overcast
2:35 AM 19.0 °F - 12.9 °F 77% 30.29 in 10.0 mi Calm Calm - N/A   Overcast
2:55 AM 19.2 °F - 13.1 °F 77% 30.30 in 10.0 mi Calm Calm - N/A   Overcast
3:15 AM 19.2 °F 14.1 °F 13.3 °F 78% 30.28 in 10.0 mi ENE 3.5 mph - N/A   Overcast
3:35 AM 19.2 °F 14.1 °F 13.1 °F 77% 30.27 in 10.0 mi ENE 3.5 mph - N/A   Overcast
3:55 AM 19.4 °F 11.5 °F 13.5 °F 78% 30.26 in 10.0 mi ENE 5.8 mph - N/A   Overcast
4:15 AM 19.4 °F 12.8 °F 13.5 °F 78% 30.25 in 10.0 mi ENE 4.6 mph - N/A   Overcast
4:35 AM 19.4 °F 14.3 °F 13.6 °F 78% 30.26 in 10.0 mi ENE 3.5 mph - N/A   Overcast
4:55 AM 19.4 °F 10.4 °F 14.0 °F 80% 30.24 in 10.0 mi East 6.9 mph - N/A   Overcast
5:15 AM 19.4 °F 12.8 °F 14.0 °F 80% 30.25 in 10.0 mi East 4.6 mph - N/A   Overcast
5:35 AM 19.6 °F 10.6 °F 14.2 °F 80% 30.23 in 10.0 mi ENE 6.9 mph - N/A   Overcast
5:55 AM 19.4 °F 12.8 °F 14.0 °F 80% 30.24 in 10.0 mi East 4.6 mph - N/A   Overcast
6:15 AM 19.8 °F 13.2 °F 14.0 °F 78% 30.26 in 10.0 mi East 4.6 mph - N/A   Overcast
6:35 AM 19.9 °F - 14.5 °F 80% 30.27 in 10.0 mi Calm Calm - N/A   Overcast
6:55 AM 19.9 °F 14.9 °F 14.4 °F 79% 30.27 in 10.0 mi NE 3.5 mph - N/A   Overcast
7:15 AM 20.1 °F - 14.5 °F 79% 30.28 in 10.0 mi Calm Calm - N/A   Overcast
7:35 AM 20.1 °F - 14.5 °F 79% 30.29 in 10.0 mi Calm Calm - N/A   Overcast
7:55 AM 20.3 °F 13.8 °F 14.9 °F 80% 30.27 in 10.0 mi North 4.6 mph - N/A   Overcast
8:15 AM 20.7 °F 15.8 °F 15.6 °F 81% 30.28 in 10.0 mi NNE 3.5 mph - N/A   Overcast
8:35 AM 21.0 °F - 16.3 °F 82% 30.28 in 10.0 mi Calm Calm - N/A   Overcast
8:55 AM 21.2 °F - 16.5 °F 82% 30.29 in 10.0 mi Calm Calm - N/A   Overcast
9:15 AM 21.2 °F - 16.7 °F 83% 30.29 in 10.0 mi Calm Calm - N/A   Overcast
9:35 AM 21.6 °F 14.0 °F 16.9 °F 82% 30.29 in 10.0 mi East 5.8 mph - N/A   Overcast
9:55 AM 22.1 °F 15.9 °F 17.4 °F 82% 30.30 in 10.0 mi East 4.6 mph - N/A   Overcast
10:15 AM 22.8 °F 16.7 °F 18.0 °F 82% 30.30 in 10.0 mi ESE 4.6 mph - N/A   Overcast
10:35 AM 23.4 °F 16.2 °F 18.1 °F 80% 30.29 in 10.0 mi ESE 5.8 mph - N/A   Overcast
10:55 AM 23.5 °F 19.1 °F 18.5 °F 81% 30.29 in 10.0 mi ESE 3.5 mph - N/A   Overcast
11:15 AM 23.9 °F 19.5 °F 18.5 °F 80% 30.28 in 10.0 mi ESE 3.5 mph - N/A   Overcast
11:35 AM 24.1 °F 19.7 °F 18.7 °F 80% 30.28 in 10.0 mi SSE 3.5 mph - N/A   Overcast
11:55 AM 24.6 °F - 19.4 °F 81% 30.26 in 7.0 mi Calm Calm - N/A   Overcast
12:15 PM 24.8 °F - 19.8 °F 81% 30.27 in 10.0 mi Calm Calm - N/A   Overcast
12:35 PM 25.0 °F - 19.9 °F 81% 30.25 in 10.0 mi Calm Calm - N/A   Overcast
12:55 PM 25.5 °F - 20.3 °F 81% 30.25 in 10.0 mi Calm Calm - N/A   Overcast
1:15 PM 25.7 °F - 20.5 °F 81% 30.23 in 7.0 mi Calm Calm - N/A   Overcast
1:35 PM 26.2 °F - 20.8 °F 80% 30.21 in 7.0 mi Calm Calm - N/A   Overcast
1:55 PM 27.3 °F - 21.7 °F 80% 30.19 in 10.0 mi Calm Calm - N/A   Overcast
2:15 PM 28.4 °F 23.3 °F 22.3 °F 78% 30.18 in 10.0 mi SSW 4.6 mph - N/A   Overcast
2:35 PM 29.5 °F 23.4 °F 23.0 °F 77% 30.17 in 10.0 mi SSW 5.8 mph - N/A   Overcast
2:55 PM 30.0 °F - 22.8 °F 75% 30.16 in 10.0 mi Calm Calm - N/A   Overcast
3:15 PM 31.6 °F 28.3 °F 23.5 °F 72% 30.15 in 10.0 mi SE 3.5 mph - N/A   Overcast
3:35 PM 32.0 °F 25.6 °F 24.1 °F 73% 30.15 in 10.0 mi SSW 6.9 mph - N/A   Overcast
3:55 PM 32.0 °F 24.8 °F 24.1 °F 73% 30.15 in 10.0 mi SSW 8.1 mph - N/A   Overcast
4:15 PM 32.4 °F 26.0 °F 24.4 °F 73% 30.15 in 10.0 mi South 6.9 mph - N/A   Overcast
4:35 PM 32.0 °F 24.2 °F 24.4 °F 74% 30.15 in 10.0 mi South 9.2 mph - N/A   Overcast
4:55 PM 32.2 °F 24.4 °F 24.6 °F 74% 30.16 in 10.0 mi South 9.2 mph - N/A   Overcast
5:15 PM 32.0 °F 25.6 °F 24.6 °F 74% 30.15 in 10.0 mi South 6.9 mph - N/A   Overcast
5:35 PM 32.0 °F 25.6 °F 24.6 °F 74% 30.15 in 10.0 mi South 6.9 mph - N/A   Overcast
5:55 PM 32.0 °F 25.6 °F 24.6 °F 74% 30.15 in 10.0 mi South 6.9 mph - N/A   Mostly Cloudy
6:15 PM 30.9 °F 24.3 °F 24.4 °F 77% 30.15 in 10.0 mi SSE 6.9 mph - N/A   Scattered Clouds
6:35 PM 29.3 °F 22.3 °F 24.3 °F 81% 30.15 in 10.0 mi SSE 6.9 mph - N/A   Clear
6:55 PM 28.9 °F 22.8 °F 24.3 °F 83% 30.15 in 10.0 mi SSE 5.8 mph - N/A   Clear
7:15 PM 28.4 °F 21.2 °F 24.4 °F 85% 30.15 in 10.0 mi SSE 6.9 mph - N/A   Clear
7:35 PM 27.5 °F 21.1 °F 24.6 °F 89% 30.15 in 10.0 mi SSE 5.8 mph - N/A   Scattered Clouds
7:55 PM 29.3 °F 24.3 °F 25.7 °F 86% 30.16 in 10.0 mi SSE 4.6 mph - N/A   Overcast
8:15 PM 29.5 °F 24.5 °F 26.1 °F 87% 30.16 in 10.0 mi SSE 4.6 mph - N/A   Overcast
8:35 PM 30.2 °F 22.6 °F 27.0 °F 88% 30.16 in 10.0 mi South 8.1 mph - N/A   Overcast
8:55 PM 30.4 °F 21.5 °F 27.3 °F 88% 30.16 in 10.0 mi South 10.4 mph - N/A   Overcast
9:15 PM 30.2 °F 21.9 °F 27.5 °F 90% 30.15 in 10.0 mi South 9.2 mph - N/A   Overcast
9:35 PM 29.8 °F 20.9 °F 28.2 °F 94% 30.15 in 5.0 mi SSE 10.4 mph - N/A   Overcast
9:55 PM 29.7 °F 22.0 °F 28.6 °F 96% 30.15 in 4.0 mi SSE 8.1 mph - N/A   Overcast
10:15 PM 29.3 °F 20.8 °F 28.4 °F 96% 30.16 in 1.8 mi South 9.2 mph - N/A   Overcast
10:35 PM 29.7 °F 23.7 °F 28.9 °F 97% 30.16 in 3.0 mi South 5.8 mph - N/A   Overcast
10:55 PM 29.7 °F 20.7 °F 28.9 °F 97% 30.16 in 4.0 mi South 10.4 mph - N/A   Overcast
11:15 PM 29.5 °F 20.4 °F 28.8 °F 97% 30.15 in 1.2 mi South 10.4 mph - N/A   Overcast
11:35 PM 29.7 °F 20.7 °F 28.9 °F 97% 30.15 in 1.0 mi South 10.4 mph - N/A   Overcast
11:55 PM 30.0 °F 21.1 °F 29.3 °F 97% 30.15 in 1.2 mi South 10.4 mph - N/A   Overcast